Location: Unspecified
(42.9300°N, 71.1866°W)
Time: 22:46:42
(UTC-04:00)

Cosmos 2058 - Visible Passes

Search period start: 24 October 2014 00:00
Search period end: 02 November 2014 23:00
Orbit: 571 x 592 km, 82.5° (Epoch: 24 October)

Date Brightness Start Highest point End Pass type
(mag) Time Alt. Az. Time Alt. Az. Time Alt. Az.
24 Oct 3.3 05:11:23 10° S 05:15:31 66° E 05:19:42 10° NNE visible
25 Oct 2.8 05:16:54 10° S 05:21:04 87° W 05:25:19 10° N visible
26 Oct 6.1 03:49:01 10° E 03:50:10 11° E 03:51:20 10° ENE visible
26 Oct 2.9 05:25:18 39° SW 05:26:39 61° W 05:30:51 10° N visible
27 Oct 5.8 03:56:07 15° ENE 03:56:07 15° ENE 03:58:04 10° NE visible
27 Oct 3.3 05:32:35 42° WNW 05:32:35 42° WNW 05:36:17 10° N visible
28 Oct 5.7 04:02:57 16° NE 04:02:57 16° NE 04:04:12 10° NE visible
28 Oct 4.2 05:39:24 24° NW 05:39:24 24° NW 05:41:39 10° NNW visible
29 Oct 5.8 04:09:29 13° NE 04:09:29 13° NE 04:10:06 10° NNE visible
29 Oct 4.9 05:45:55 15° NNW 05:45:55 15° NNW 05:46:52 10° NNW visible
30 Oct 5.9 04:15:50 10° NNE 04:15:50 10° NNE 04:15:51 10° NNE visible
